{"data":{"norad_id":61670,"epoch":"2026-09-21T17:15:45.356544Z","epoch_age_seconds":86681,"freshness":"FRESH","line1":"1 61670U 24193K   26264.71927496  .00000377  00000+0  23913-4 0  9992","line2":"2 61670  53.1600 259.4803 0001320  82.5638 277.5513 15.31700780106555","mean_motion":15.3170078,"eccentricity":0.000132,"inclination_deg":53.16,"raan_deg":259.4803,"arg_perigee_deg":82.5638,"mean_anomaly_deg":277.5513,"bstar":2.3913e-5,"rev_number":10655,"period_min":94.013140086016,"perigee_km":469.83361863077,"apogee_km":471.64172154367,"semimajor_km":6848.8746700872,"source":"CELESTRAK","updated_at":"2026-09-22T09:00:49.401663Z"}}